Regional Weather Roundup
Issued by NWS

Home | Current Version | Previous Version | Text Only | Print | Product List | Glossary On
Versions: 1 2 3 4 5 6 7 8 9 10 11 12 13 14 15 16 17 18 19 20 21 22 23 24 25 26 27 28 29 30 31 32 33 34 35 36 37 38 39 40 41 42 43 44 45 46 47 48 49 50
000
ASHW40 PHFO 031730
RWRHI

WEATHER ROUNDUP FOR HAWAII
NATIONAL WEATHER SERVICE HONOLULU HI
700 AM HST FRI JUL 03 2015

THIS IS AN AUTOMATED REPORT THAT HAS NOT BEEN QUALITY CONTROLLED.

NOTE..."FAIR" INDICATES FEW OR NO CLOUDS BELOW 12,000 FEET WITH NO
SIGNIFICANT WEATHER AND/OR OBSTRUCTIONS TO VISIBILITY.

* - THESE SITES REPORT LIMITED FIELDS

HIZ001>004-031800-
KAUAI-NIIHAU-

CITY           SKY/WX    TMP DP  RH WIND       PRES   REMARKS
LIHUE APT      MOSUNNY   74  68  81 W7        29.92R
PORT ALLEN*    NOT AVBL
POIPU*           N/A     72 N/A N/A VRB3        N/A
PRINCEVILLE*     N/A     72 N/A N/A MISG        N/A
KOKOLE POINT*  NOT AVBL
MOLOAA DAIRY*  NOT AVBL
WAIMEA HTS*    NOT AVBL
PUU OPAE*      NOT AVBL
PUU LUA*       NOT AVBL
MAKAHA RIDGE*    N/A     72  59  64 N1          N/A
$$

HIZ005>011-031800-
OAHU-

CITY           SKY/WX    TMP DP  RH WIND       PRES   REMARKS
HONOLULU       MOSUNNY   80  71  74 VRB3      29.91R
KALAELOA       MOSUNNY   77  70  79 CALM      29.92R
KANEOHE MCB    PTSUNNY   79  73  82 SE7       29.89S
WHEELER FIELD  FAIR      71  69  92 W1        29.91S
BELLOWS*         N/A    N/A N/A N/A E14         N/A
KAHUKU*          N/A    N/A N/A N/A E7G16       N/A
WHEELER*       NOT AVBL
WAIANAE HARBOR NOT AVBL
DILLINGHAM*      N/A     72  68  88 MISG        N/A
KAHUKU TRN*      N/A     73  70  88 E6G13       N/A
KAWAILOA*        N/A     73  68  83 SE3         N/A
KII*             N/A     81  73  78 E14         N/A
MAKUA RANGE*     N/A     79  66  65 E3G9        N/A
OAHU FOREST NW NOT AVBL
SCHOFIELD BRK*   N/A     66  63  88 MISG        N/A
SCHOFIELD S*   NOT AVBL
WAIANAE VLY*   NOT AVBL
KUAOKALA*      NOT AVBL
HONOULIUULI*   NOT AVBL
MOKUOLOE IS*   NOT AVBL
PALEHUA*       NOT AVBL
WAIAWA PHB*    NOT AVBL
$$

HIZ012>013-031800-
MOLOKAI-

CITY           SKY/WX    TMP DP  RH WIND       PRES   REMARKS
MOLOKAI AIRPT  MOSUNNY   76  71  85 NW3       29.93R
KALAUPAPA      NOT AVBL
MAKAPULAPAI*   NOT AVBL
MOLOKAI 1*     NOT AVBL
PUU ALII*        N/A     61  61 100 CALM        N/A
$$

HIZ016-031800-
KAHOOLAWE-

CITY           SKY/WX    TMP DP  RH WIND       PRES   REMARKS
KAHOOLAWE*     NOT AVBL
HAKIOAWA*        N/A     75  70  85 CALM      30.34F
HONOKANAIA*      N/A     80  71  74 NE12G23   29.92S
KANELOA*         N/A     75  72  88 E13G23    29.98S
KEALIALALO*      N/A     77  70  78 SE14G28   29.92R
LUA MAKIKA*    NOT AVBL
$$

HIZ014>015-031800-
LANAI-

CITY           SKY/WX    TMP DP  RH WIND       PRES   REMARKS
LANAI CITY     PTSUNNY   72  70  94 SE3       29.98R
LANAI 1*       NOT AVBL
$$

HIZ017>028-031800-
MAUI-

CITY           SKY/WX    TMP DP  RH WIND       PRES   REMARKS
KAHULUI        MOSUNNY   74  67  78 SE6       29.92R
KAPALUA-W MAUI MOSUNNY   77  68  73 VRB6      29.93R
HANA AIRPORT   PTSUNNY   77  72  83 SE5       29.96S
HANA*            N/A     77 N/A N/A SE5         N/A
HALEAKALA SUMM   N/A     52  30  43 SE7         N/A
MAALAEA BAY*   NOT AVBL
HALEAKALA*     NOT AVBL
KAUPO GAP*     NOT AVBL
KULA 1*          N/A     57  41  54 E5          N/A
$$

HIZ023>026-031800-
BIG ISLAND OF HAWAII COAST AND LOWER SLOPES-

CITY           SKY/WX    TMP DP  RH WIND       PRES   REMARKS
KAILUA KONA    SUNNY     80  70  71 N8        29.89R
HILO           CLOUDY    74  62  66 SW6       29.95R
HONOKAA*       NOT AVBL
KAWAIHAE MWT*    N/A     79 N/A N/A E1          N/A
KAWAIHAE*        N/A     81 N/A N/A W2          N/A
SOUTH POINT*     N/A     72 N/A N/A NE6         N/A
UPOLU AIRPORT*   N/A    N/A N/A N/A E9G15       N/A
KAMUELA*       SUNNY     70  64  83 NE6       30.04R
HAKALAU*         N/A     60  40  47 SW2G9       N/A
KALOKO-HONOKO*   N/A     81  68  65 N2        29.89R
PALI 2*          N/A     68  61  77 VRB3G12     N/A
KEALAKOMO*       N/A     77  66  69 NE12G18     N/A
KAUPULEHU*     NOT AVBL
KAPAPALA*        N/A     67  60  78 VRB3G12     N/A
LOWER KAHUKU*    N/A     61  57  88 N2G8        N/A
PUHE CS*         N/A     79  64  61 CALM        N/A
PUHO CS*         N/A     75  64  69 E3          N/A
PTA KEAMUKU*     N/A     66  59  77 CALM        N/A
WAIKOLOA*      NOT AVBL
$$

HIZ027>028-031800-
BIG ISLAND OF HAWAII INTERIOR AND SUMMMITS-

CITY           SKY/WX    TMP DP  RH WIND       PRES   REMARKS
BRADSHAW FIELD SUNNY     58  38  49 SE1       30.27R
MK VISITOR CEN   N/A      0   0 100 MISG        N/A
MAUNA KEA*       N/A     37   5  25 S2          N/A
MAUNA LOA*       N/A    N/A N/A N/A MISG        N/A
MAUNA LOA 1*   NOT AVBL
PTA KIPUKA*      N/A     61  50  67 SE1         N/A
PTA RANGE 17*    N/A     54  34  47 E8          N/A
PTA WEST*        N/A    N/A N/A N/A SE7         N/A
NENE CABIN*      N/A    N/A N/A N/A NE3         N/A
AHUMOA*        NOT AVBL
PTA PORTABLE*  NOT AVBL
PUU MALI*        N/A     63  45  51 SW3         N/A
$$

HIC003-031800-
NORTHWEST ISLANDS-

CITY           SKY/WX    TMP DP  RH WIND       PRES   REMARKS
MIDWAY ISLAND  PTCLDY    77  73  88 W6        29.94S
MIDWAY NOS*    NOT AVBL
FRENCH FRIGATE NOT AVBL
$$

PHZ110>124-180-031800-
BUOY REPORTS

STATION/POSITION TIME  TEMP    WIND        PRES    WAVE   SWELL
                       AIR SEA DIR/SP/G            HT/PER HT/DIR
                 (UTC) (F)     (DEG/KT/KT) (MB)    (FT/S) (FT/D)
BUOY 51001       NOT AVBL
BUOY 51101       1700   78 79  210/ 10/ 12 1011.2R   5/ 9   5/320
BUOY 51100       NOT AVBL
BUOY 51002       1700   80 81   80/ 14/ 17 1011.2R   6/14   5/160
BUOY 51003       1700   80 81  140/ 12/ 14 1011.8R   5/ 9   5
BUOY 51004       1549   78 80   70/ 14/ 17 1012.0R   7/ 8   7/100
BARBERS PT BUOY  NOT AVBL
WAIMEA BAY BUOY  1700      80                N/A     3/11
KAILUA BAY BUOY  1700      79                N/A     4/ 9   2
LANAI BUOY       NOT AVBL
BARBERS PT 2     1700      80                N/A     5/11   3/220
PAUWELA MAUI     1700      79                N/A     5/ 9   2/350
HILO             1700      78                N/A     5/ 8   2/ 70
KANEOHE BAY BUOY 1700      80                N/A     4/ 8   2/350
HANALEI KAUAI    1700      81                N/A     5/11   2/310
KAHULUI HARBOR   1700   76 81   50/  4/  5 1012.8R
HONOLULU HARBOR  1700   79 82     CALM     1012.8R
KILO NALU        NOT AVBL
HILO HARBOR      1700   75 77  190/  4/  5 1013.7R
MOKUOLOE         1700   80 84  100/  9/ 12 1012.9S
NAWILIWILI       1700   73 81  260/  4/  6 1012.8R
WHOTS BUOY       NOT AVBL
BUOY 51028       NOT AVBL
$$

......................KEY........................................
  SKY/WX - SKY CONDITIONS/PRESENT WEATHER
  TMP    - TEMPERATURE IN FAHRENHEIT
  DWPT   - DEWPOINT IN FAHRENHEIT
  RH     - RELATIVE HUMIDITY IN PERCENT
  WIND   - DIRECTION AND SPEED /MPH FOR ISLANDS...KTS FOR BUOYS/
  PRES   - MEAN SEA LEVEL PRESSURE IN INCHES OF HG
  VSB    - VISIBILITY IN MILES
  HX     - HEAT INDEX
  WCI    - WIND CHILL INDEX
  VRB    - VARIABLE WIND DIRECTION
  N/A    - NOT AVAILABLE



USA.gov is the U.S. government's official web portal to all federal, state and local government web resources and services.